Caribou, ME

6:21 PM EDT on August 29, 2016 (GMT -0400)
Caribou Municipal

Weather History for KCAR - August, 2014

Change the Weather History Date:

Friday, August 22, 2014

  Actual Average Record
Temperature  
Mean Temperature 64 °F 63 °F  
Max Temperature 73 °F 74 °F 91 °F (1976)
Min Temperature 55 °F 52 °F 38 °F (1965)
Degree Days  
Heating Degree Days 1 4  
Month to date heating degree days 21 54  
Since 1 June heating degree days 134 277  
Since 1 July heating degree days 45 112  
Cooling Degree Days 0 1  
Month to date cooling degree days 42 42  
Year to date cooling degree days 211 158  
Since 1 June cooling degree days 208 153  
Growing Degree Days 14 (Base 50)    
Moisture  
Dew Point 56 °F    
Average Humidity 79    
Maximum Humidity 100    
Minimum Humidity 57    
Precipitation  
Precipitation 0.00 in 0.12 in 1.36 in (2011)
Month to date precipitation 1.68 2.73  
Year to date precipitation 28.55 23.71  
Snow  
Snow 0.00 in 0.00 in 0.00 in (2002)
Month to date snowfall 0.0 0.0  
Since 1 June snowfall 0.0 0.0  
Since 1 July snowfall 0.0 0.0  
Snow Depth 0.00 in    
Sea Level Pressure  
Sea Level Pressure 30.18 in    
Wind  
Wind Speed 2 mph (ENE)    
Max Wind Speed 8 mph    
Max Gust Speed 10 mph    
Visibility 10 miles    
Events      
T = Trace of Precipitation, MM = Missing Value Source: NWS Daily Summary

Daily Weather History Graph

Daily Weather History Graph

Search for Another Location

Airport or City:

Trip Planner

Search our weather history database for the weather conditions in past years. The results will help you decide how hot, cold, wet, or windy it might be!

Date:

Astronomy

Aug. 22, 2014 Rise Set
Actual Time 5:38 AM EDT 7:30 PM EDT
Civil Twilight 5:06 AM EDT 8:02 PM EDT
Nautical Twilight 4:26 AM EDT 8:42 PM EDT
Astronomical Twilight 3:42 AM EDT 9:25 PM EDT
Moon 2:53 AM EDT (8/22) 5:40 PM EDT (8/22)
Length of Visible Light 14h 56m
Length of Day
13h 51m
Waning Crescent, 8% of the Moon is Illuminated
Aug 22
Waning Crescent
Aug 25
New
Sep 2
First Quarter
Sep 8
Full
Sep 15
Last Quarter

Hourly Weather History & Observations

Time (EDT) Temp. Dew Point Humidity Pressure Visibility Wind Dir Wind Speed Gust Speed Precip Events Conditions
12:54 AM 60.1 °F 57.0 °F 90% 30.17 in 10.0 mi Calm Calm - N/A   Mostly Cloudy
1:32 AM 59.0 °F 57.0 °F 93% 30.16 in 10.0 mi Calm Calm - N/A   Mostly Cloudy
1:54 AM 60.1 °F 57.0 °F 90% 30.17 in 10.0 mi Calm Calm - N/A   Mostly Cloudy
2:54 AM 59.0 °F 55.9 °F 90% 30.17 in 10.0 mi NE 3.5 mph - N/A   Overcast
3:54 AM 55.9 °F 55.0 °F 97% 30.17 in 10.0 mi Calm Calm - N/A   Clear
4:54 AM 55.9 °F 54.0 °F 93% 30.18 in 10.0 mi East 4.6 mph - N/A   Mostly Cloudy
5:54 AM 55.9 °F 54.0 °F 93% 30.19 in 10.0 mi East 3.5 mph - N/A   Overcast
6:54 AM 57.0 °F 55.0 °F 93% 30.21 in 10.0 mi Calm Calm - N/A   Overcast
7:54 AM 60.1 °F 55.9 °F 86% 30.21 in 10.0 mi Calm Calm - N/A   Overcast
8:54 AM 61.0 °F 55.9 °F 83% 30.22 in 10.0 mi Calm Calm - N/A   Overcast
9:54 AM 64.9 °F 55.9 °F 73% 30.22 in 10.0 mi Calm Calm - N/A   Overcast
10:54 AM 68.0 °F 55.9 °F 65% 30.20 in 10.0 mi Calm Calm - N/A   Overcast
11:54 AM 69.1 °F 55.0 °F 61% 30.19 in 10.0 mi NNE 6.9 mph - N/A   Overcast
12:54 PM 70.0 °F 54.0 °F 57% 30.18 in 10.0 mi Calm Calm - N/A   Overcast
1:54 PM 70.0 °F 54.0 °F 57% 30.17 in 10.0 mi East 5.8 mph - N/A   Overcast
2:54 PM 70.0 °F 54.0 °F 57% 30.17 in 10.0 mi ENE 4.6 mph - N/A   Overcast
3:54 PM 70.0 °F 57.0 °F 63% 30.16 in 10.0 mi North 5.8 mph - N/A   Mostly Cloudy
4:54 PM 71.1 °F 55.9 °F 59% 30.16 in 10.0 mi South 4.6 mph - N/A   Overcast
5:54 PM 70.0 °F 55.9 °F 61% 30.16 in 10.0 mi Calm Calm - N/A   Overcast
6:54 PM 69.1 °F 57.0 °F 65% 30.16 in 10.0 mi Calm Calm - N/A   Overcast
7:54 PM 64.9 °F 57.9 °F 78% 30.17 in 10.0 mi Calm Calm - N/A   Overcast
8:54 PM 64.0 °F 57.9 °F 80% 30.17 in 10.0 mi Calm Calm - N/A   Partly Cloudy
9:54 PM 61.0 °F 57.9 °F 90% 30.17 in 10.0 mi Calm Calm - N/A   Mostly Cloudy
10:54 PM 62.1 °F 59.0 °F 90% 30.17 in 10.0 mi Calm Calm - N/A   Overcast
11:54 PM 60.1 °F 57.9 °F 93% 30.16 in 10.0 mi ESE 3.5 mph - N/A   Overcast